Simultaneous Nadir Overpasses (SNOs) Predictions

Prediction of SNOs between GOES-16 and AQUA Satellite Orbit:

Table of predicted SNOs for the next 14.0 days since TLE Epoch: 6/8/2017
Index Date Time (GOES-16) GOES-16 Lat,Lon AQUA Lat,Lon Distance(km) Time Diff (sec)
1 06/09/2017 19:24:50 0.00, -89.46 0.54, -87.10 269.80 80
2 06/10/2017 07:46:05 -0.01, -89.48 0.55, -92.25 314.19 80
3 06/12/2017 07:31:12 -0.01, -89.49 -0.03, -89.28 23.19 80
4 06/14/2017 07:19:00 -0.02, -89.50 -0.67, -86.33 360.45 80
5 06/14/2017 19:40:24 0.02, -89.48 -0.40, -91.53 231.83 80
6 06/16/2017 19:30:52 0.01, -89.50 0.18, -88.56 106.35 80
7 06/17/2017 07:52:06 -0.01, -89.52 0.90, -93.71 477.03 80
8 06/18/2017 19:18:40 0.01, -89.51 0.83, -85.60 444.63 80
9 06/19/2017 07:39:54 -0.01, -89.54 0.25, -90.76 138.79 80
10 06/21/2017 07:25:02 -0.02, -89.56 -0.40, -87.80 199.38 80
11 06/21/2017 19:46:26 0.02, -89.54 -0.72, -92.99 393.07 80




NCC Satellite Simultaneous Nadir Overpasses (SNOs) Prediction Service
